{"data":{"norad_id":63286,"epoch":"2026-05-24T11:40:57.788544Z","epoch_age_seconds":129471,"freshness":"FRESH","line1":"1 63286U 25053X   26144.48677996  .00011406  00000+0  42304-3 0  9990","line2":"2 63286  43.0011 173.8893 0001903 267.3305  92.7329 15.27605433 67780","mean_motion":15.27605433,"eccentricity":0.0001903,"inclination_deg":43.0011,"raan_deg":173.8893,"arg_perigee_deg":267.3305,"mean_anomaly_deg":92.7329,"bstar":0.00042304,"rev_number":6778,"period_min":94.265179272899,"perigee_km":481.6672723229,"apogee_km":484.27861076665,"semimajor_km":6861.1099415448,"source":"CELESTRAK","updated_at":"2026-05-25T13:38:19.928742Z"}}